SAS169 ESGG-ESSA

Flight info

Callsign SAS169
Flight time 0h 37m
Altitude 29000
Route LABAN N873 ARS T317 ELTOK
Aircraft A321/M-SDE3FGHIRWY/LB1

Departure

Time 2026-05-06 19:28
Airport Göteborg Landvetter Airport (ESGG)

Arrival

Time 2026-05-06 20:06
Airport Stockholm-Arlanda Airport (ESSA)
Time Latitude Longitude Altitude Speed Heading
2026-05-06 18:59 57.66933 12.29466 529 ft 0 kts 116°
2026-05-06 19:18 57.66944 12.29428 528 ft 4 kts 123°
2026-05-06 19:18 57.66960 12.29388 528 ft 4 kts 137°
2026-05-06 19:18 57.66982 12.29363 528 ft 4 kts 176°
2026-05-06 19:18 57.66993 12.29364 529 ft 0 kts 206°
2026-05-06 19:22 57.66990 12.29361 528 ft 2 kts 206°
2026-05-06 19:22 57.66982 12.29341 528 ft 2 kts 242°
2026-05-06 19:22 57.66984 12.29311 528 ft 3 kts 283°
2026-05-06 19:22 57.66989 12.29286 528 ft 1 kts 292°
2026-05-06 19:23 57.67004 12.29222 528 ft 10 kts 302°
2026-05-06 19:23 57.67072 12.29212 529 ft 13 kts 24°
2026-05-06 19:23 57.67154 12.29287 530 ft 14 kts 26°
2026-05-06 19:23 57.67243 12.29367 531 ft 16 kts 26°
2026-05-06 19:24 57.67346 12.29461 532 ft 17 kts 26°
2026-05-06 19:24 57.67434 12.29384 532 ft 16 kts 297°
2026-05-06 19:24 57.67460 12.29266 532 ft 0 kts 277°
2026-05-06 19:25 57.67460 12.29263 532 ft 2 kts 275°
2026-05-06 19:26 57.67458 12.29167 531 ft 10 kts 262°
2026-05-06 19:26 57.67426 12.29025 530 ft 13 kts 232°
2026-05-06 19:26 57.67392 12.28985 530 ft 0 kts 204°
2026-05-06 19:27 57.67387 12.28981 530 ft 5 kts 204°
2026-05-06 19:27 57.67122 12.28740 530 ft 82 kts 206°
2026-05-06 19:27 57.66386 12.28066 521 ft 150 kts 206°
2026-05-06 19:28 57.65339 12.27107 916 ft 171 kts 208°
2026-05-06 19:28 57.64269 12.26135 1748 ft 171 kts 208°
2026-05-06 19:28 57.63139 12.25154 2295 ft 189 kts 201°
2026-05-06 19:28 57.61761 12.25111 2556 ft 214 kts 163°
2026-05-06 19:29 57.60356 12.26251 3006 ft 223 kts 156°
2026-05-06 19:29 57.58957 12.27437 3836 ft 219 kts 157°
2026-05-06 19:29 57.57668 12.28915 4588 ft 221 kts 136°
2026-05-06 19:29 57.56921 12.31420 5255 ft 228 kts 105°
2026-05-06 19:30 57.57001 12.34481 5571 ft 252 kts 72°
2026-05-06 19:30 57.57665 12.37571 6093 ft 260 kts 69°
2026-05-06 19:30 57.58374 12.40808 6575 ft 276 kts 69°
2026-05-06 19:30 57.59101 12.44157 7328 ft 280 kts 69°
2026-05-06 19:31 57.59828 12.47552 8119 ft 284 kts 70°
2026-05-06 19:31 57.60559 12.50995 8919 ft 288 kts 69°
2026-05-06 19:31 57.62304 12.57793 10414 ft 296 kts 52°
2026-05-06 19:32 57.63756 12.60628 10822 ft 312 kts 37°
2026-05-06 19:32 57.65600 12.63014 10979 ft 335 kts 33°
2026-05-06 19:32 57.67596 12.65507 11204 ft 352 kts 33°
2026-05-06 19:32 57.69649 12.68084 11778 ft 358 kts 33°
2026-05-06 19:33 57.71723 12.70711 12434 ft 362 kts 33°
2026-05-06 19:33 57.73812 12.73379 13103 ft 366 kts 33°
2026-05-06 19:33 57.75918 12.76085 13771 ft 369 kts 32°
2026-05-06 19:33 57.78048 12.78828 14346 ft 373 kts 32°
2026-05-06 19:34 57.80168 12.81559 14907 ft 377 kts 32°
2026-05-06 19:34 57.82341 12.84351 15462 ft 381 kts 32°
2026-05-06 19:34 57.84543 12.87184 15990 ft 385 kts 32°
2026-05-06 19:34 57.86767 12.90058 16553 ft 389 kts 32°
2026-05-06 19:35 57.89013 12.92965 17103 ft 394 kts 32°
2026-05-06 19:35 57.91280 12.95898 17651 ft 398 kts 32°
2026-05-06 19:35 57.93570 12.98865 18183 ft 402 kts 32°
2026-05-06 19:35 57.95888 13.01870 18642 ft 406 kts 32°
2026-05-06 19:36 57.98225 13.04901 19080 ft 410 kts 32°
2026-05-06 19:36 58.00584 13.07966 19505 ft 414 kts 32°
2026-05-06 19:36 58.02970 13.11068 19943 ft 418 kts 32°
2026-05-06 19:36 58.05372 13.14199 20375 ft 422 kts 32°
2026-05-06 19:37 58.07794 13.17369 20797 ft 426 kts 32°
2026-05-06 19:37 58.10238 13.20577 21221 ft 429 kts 32°
2026-05-06 19:37 58.12701 13.23817 21648 ft 433 kts 32°
2026-05-06 19:37 58.14342 13.25976 21890 ft 436 kts 32°
2026-05-06 19:38 58.17521 13.30840 22451 ft 444 kts 43°
2026-05-06 19:38 58.19594 13.35231 22851 ft 450 kts 47°
2026-05-06 19:38 58.21632 13.39772 23266 ft 453 kts 47°
2026-05-06 19:38 58.23682 13.44349 23629 ft 457 kts 48°
2026-05-06 19:39 58.25750 13.48962 23970 ft 460 kts 47°
2026-05-06 19:39 58.27838 13.53615 24313 ft 464 kts 48°
2026-05-06 19:39 58.29934 13.58287 24647 ft 467 kts 48°
2026-05-06 19:39 58.32048 13.63009 24993 ft 471 kts 48°
2026-05-06 19:40 58.34185 13.67791 25289 ft 475 kts 48°
2026-05-06 19:40 58.36333 13.72608 25606 ft 479 kts 48°
2026-05-06 19:40 58.38466 13.77402 25923 ft 482 kts 48°
2026-05-06 19:40 58.40665 13.82358 26250 ft 484 kts 48°
2026-05-06 19:41 58.42813 13.87217 26589 ft 487 kts 48°
2026-05-06 19:41 58.45002 13.92175 26912 ft 490 kts 49°
2026-05-06 19:41 58.47200 13.97168 27225 ft 493 kts 49°
2026-05-06 19:41 58.49411 14.02210 27533 ft 496 kts 49°
2026-05-06 19:42 58.51631 14.07281 27841 ft 499 kts 49°
2026-05-06 19:42 58.53866 14.12385 28160 ft 502 kts 49°
2026-05-06 19:42 58.56117 14.17532 28418 ft 507 kts 49°
2026-05-06 19:42 58.58391 14.22743 28671 ft 511 kts 49°
2026-05-06 19:43 58.60674 14.27982 28904 ft 514 kts 49°
2026-05-06 19:43 58.62944 14.33205 28959 ft 505 kts 49°
2026-05-06 19:43 58.67409 14.43522 28940 ft 500 kts 49°
2026-05-06 19:44 58.71847 14.53819 28948 ft 499 kts 49°
2026-05-06 19:44 58.76248 14.64076 28968 ft 499 kts 49°
2026-05-06 19:45 58.80668 14.74431 28959 ft 500 kts 49°
2026-05-06 19:45 58.85081 14.84817 28963 ft 500 kts 49°
2026-05-06 19:46 58.89483 14.95241 28964 ft 501 kts 49°
2026-05-06 19:46 58.93144 15.03920 28964 ft 501 kts 49°
2026-05-06 19:47 58.97551 15.14392 28943 ft 502 kts 50°
2026-05-06 19:47 59.01960 15.24937 28956 ft 505 kts 50°
2026-05-06 19:48 59.06381 15.35575 28932 ft 507 kts 50°
2026-05-06 19:48 59.10896 15.46153 28936 ft 508 kts 46°
2026-05-06 19:49 59.15747 15.56173 28941 ft 507 kts 44°
2026-05-06 19:49 59.20694 15.66031 28989 ft 509 kts 44°
2026-05-06 19:50 59.25431 15.76371 28689 ft 520 kts 55°
2026-05-06 19:50 59.27318 15.82477 27261 ft 529 kts 60°
2026-05-06 19:50 59.29121 15.88805 25993 ft 533 kts 62°
2026-05-06 19:51 59.30855 15.95165 25235 ft 525 kts 62°
2026-05-06 19:51 59.32533 16.01454 24562 ft 516 kts 62°
2026-05-06 19:51 59.34181 16.07638 23883 ft 508 kts 62°
2026-05-06 19:51 59.35815 16.13707 23146 ft 501 kts 62°
2026-05-06 19:52 59.37448 16.19694 22384 ft 493 kts 61°
2026-05-06 19:52 59.39065 16.25572 21648 ft 486 kts 61°
2026-05-06 19:52 59.40662 16.31360 20916 ft 479 kts 61°
2026-05-06 19:52 59.42213 16.36994 20197 ft 472 kts 61°
2026-05-06 19:53 59.43755 16.42626 19487 ft 465 kts 61°
2026-05-06 19:53 59.45266 16.48186 18776 ft 458 kts 61°
2026-05-06 19:53 59.46751 16.53682 18047 ft 451 kts 62°
2026-05-06 19:53 59.48209 16.59091 17270 ft 444 kts 62°
2026-05-06 19:54 59.49653 16.64443 16503 ft 438 kts 62°
2026-05-06 19:54 59.51069 16.69704 15762 ft 432 kts 62°
2026-05-06 19:54 59.52464 16.74903 15048 ft 427 kts 62°
2026-05-06 19:54 59.53837 16.80039 14356 ft 421 kts 62°
2026-05-06 19:55 59.55195 16.85120 13648 ft 416 kts 62°
2026-05-06 19:55 59.56531 16.90131 12872 ft 410 kts 62°
2026-05-06 19:55 59.57848 16.95083 12131 ft 405 kts 62°
2026-05-06 19:55 59.59139 16.99946 11104 ft 392 kts 61°
2026-05-06 19:56 59.60372 17.04612 10248 ft 374 kts 61°
2026-05-06 19:56 59.61539 17.09044 9499 ft 354 kts 61°
2026-05-06 19:56 59.62645 17.13249 8777 ft 336 kts 61°
2026-05-06 19:56 59.63699 17.17257 8071 ft 322 kts 61°
2026-05-06 19:57 59.64713 17.21113 7367 ft 310 kts 62°
2026-05-06 19:57 59.65690 17.24830 6681 ft 300 kts 62°
2026-05-06 19:57 59.66627 17.28399 6183 ft 284 kts 62°
2026-05-06 19:57 59.67515 17.31791 5946 ft 275 kts 62°
2026-05-06 19:58 59.68378 17.35096 5840 ft 276 kts 62°
2026-05-06 19:58 59.69274 17.38533 5840 ft 284 kts 62°
2026-05-06 19:58 59.70208 17.42127 5845 ft 297 kts 62°
2026-05-06 19:58 59.71163 17.45815 5840 ft 302 kts 63°
2026-05-06 19:59 59.72110 17.49484 5841 ft 304 kts 63°
2026-05-06 19:59 59.73075 17.53219 5841 ft 304 kts 62°
2026-05-06 19:59 59.74038 17.56940 5622 ft 301 kts 63°
2026-05-06 19:59 59.74812 17.60719 5334 ft 291 kts 75°
2026-05-06 20:00 59.75318 17.64549 5046 ft 283 kts 76°
2026-05-06 20:00 59.75807 17.68278 4766 ft 275 kts 76°
2026-05-06 20:00 59.76281 17.71911 4469 ft 269 kts 77°
2026-05-06 20:00 59.76749 17.75464 4176 ft 263 kts 77°
2026-05-06 20:01 59.77206 17.78953 3866 ft 260 kts 77°
2026-05-06 20:01 59.77652 17.82410 3580 ft 255 kts 77°
2026-05-06 20:01 59.78078 17.85714 3538 ft 238 kts 77°
2026-05-06 20:01 59.78478 17.88800 3414 ft 225 kts 77°
2026-05-06 20:02 59.78745 17.91814 3181 ft 219 kts 92°
2026-05-06 20:02 59.78462 17.94724 2972 ft 213 kts 115°
2026-05-06 20:02 59.77666 17.97148 2774 ft 209 kts 137°
2026-05-06 20:02 59.76496 17.98775 2553 ft 203 kts 158°
2026-05-06 20:03 59.75158 17.99424 2282 ft 196 kts 177°
2026-05-06 20:03 59.73851 17.99151 1995 ft 183 kts 189°
2026-05-06 20:03 59.72630 17.98705 1738 ft 175 kts 189°
2026-05-06 20:03 59.71470 17.98283 1491 ft 168 kts 189°
2026-05-06 20:04 59.70330 17.97869 1259 ft 165 kts 189°
2026-05-06 20:04 59.69228 17.97467 1045 ft 153 kts 189°
2026-05-06 20:04 59.68226 17.97102 821 ft 142 kts 188°
2026-05-06 20:04 59.67267 17.96754 633 ft 138 kts 188°
2026-05-06 20:05 59.66326 17.96412 448 ft 137 kts 188°
2026-05-06 20:05 59.65388 17.96066 260 ft 137 kts 188°
2026-05-06 20:05 59.64468 17.95741 113 ft 128 kts 188°
2026-05-06 20:05 59.63773 17.95490 116 ft 62 kts 191°
2026-05-06 20:06 59.63500 17.95380 122 ft 31 kts 200°
2026-05-06 20:06 59.63320 17.95168 122 ft 26 kts 220°
2026-05-06 20:06 59.63243 17.94979 122 ft 14 kts 277°
2026-05-06 20:06 59.63334 17.94919 120 ft 21 kts 11°
2026-05-06 20:07 59.63498 17.94981 116 ft 26 kts 10°
2026-05-06 20:07 59.63690 17.95053 112 ft 30 kts 10°
2026-05-06 20:07 59.63900 17.95127 110 ft 31 kts 11°
2026-05-06 20:07 59.64119 17.95207 108 ft 33 kts 10°
2026-05-06 20:08 59.64350 17.95292 106 ft 34 kts 10°
2026-05-06 20:08 59.64586 17.95378 105 ft 35 kts 10°
2026-05-06 20:08 59.64824 17.95466 106 ft 35 kts 10°
2026-05-06 20:08 59.65046 17.95510 115 ft 29 kts 353°
2026-05-06 20:09 59.65233 17.95417 120 ft 27 kts 345°
2026-05-06 20:09 59.65410 17.95323 126 ft 26 kts 345°
2026-05-06 20:09 59.65590 17.95229 128 ft 27 kts 345°
2026-05-06 20:09 59.65734 17.95122 126 ft 20 kts 309°
2026-05-06 20:10 59.65726 17.94836 123 ft 23 kts 256°
2026-05-06 20:10 59.65688 17.94528 122 ft 24 kts 256°
2026-05-06 20:10 59.65647 17.94203 124 ft 26 kts 255°
2026-05-06 20:10 59.65600 17.93831 112 ft 30 kts 256°
2026-05-06 20:11 59.65559 17.93508 111 ft 24 kts 256°
2026-05-06 20:11 59.65518 17.93182 112 ft 25 kts 256°
2026-05-06 20:11 59.65465 17.92843 112 ft 26 kts 250°
2026-05-06 20:11 59.65385 17.92682 112 ft 14 kts 172°
2026-05-06 20:12 59.65340 17.92822 112 ft 12 kts 100°
2026-05-06 20:12 59.65334 17.92890 112 ft 1 kts 100°
2026-05-06 20:12 59.65334 17.92891 112 ft 0 kts 100°